IZ4UFQ-10 Weather Reports


time (UTC)temp
F
wind
direction
speed
knots
gust
knots
rain 1hr
in
rain 24hr
in
rain mn
in
humidity
%
barometer
mb
20260507221945 57 137 0.0 0.0 0.00 0.00 0.00 83 1013.6
20260507221444 57 136 0.0 0.0 0.00 0.00 0.00 82 1013.5
20260507220944 57 136 0.0 0.0 0.00 0.00 0.00 82 1013.5
20260507220444 57 136 0.0 0.0 0.00 0.00 0.00 83 1013.5
20260507215944 58 136 0.0 0.0 0.00 0.00 0.00 83 1013.4
20260507215443 58 137 0.0 0.0 0.00 0.00 0.00 82 1013.4
20260507214943 58 136 0.0 0.0 0.00 0.00 0.00 82 1013.4
20260507214443 58 136 0.0 0.0 0.00 0.00 0.00 82 1013.4
20260507213942 58 137 0.0 0.0 0.00 0.00 0.00 81 1013.3
20260507213442 58 137 0.0 0.0 0.00 0.00 0.00 81 1013.3
20260507212942 58 136 0.0 0.0 0.00 0.00 0.00 80 1013.2
20260507212442 58 136 0.0 0.0 0.00 0.00 0.00 80 1013.2
20260507211941 59 136 0.0 0.0 0.00 0.00 0.00 80 1013.1
20260507211441 59 136 0.0 0.0 0.00 0.00 0.00 80 1013.2
20260507210941 59 136 0.0 0.0 0.00 0.00 0.00 79 1013.1
20260507210440 59 137 0.0 0.0 0.00 0.00 0.00 79 1013.2
20260507205940 60 136 0.0 0.0 0.00 0.00 0.00 78 1013.2
20260507205440 60 136 0.0 0.0 0.00 0.00 0.00 78 1013.3
20260507204940 60 136 0.0 0.0 0.00 0.00 0.00 78 1013.4
20260507204439 60 136 0.0 0.0 0.00 0.00 0.00 78 1013.4
20260507203939 60 136 0.0 0.0 0.00 0.00 0.00 78 1013.4
20260507203439 60 122 0.0 0.0 0.00 0.00 0.00 77 1013.4
20260507202938 61 120 0.0 0.0 0.00 0.00 0.00 77 1013.4
20260507202438 61 121 0.0 0.0 0.00 0.00 0.00 76 1013.4
20260507201938 61 120 0.0 0.0 0.00 0.00 0.00 75 1013.4
20260507201438 61 120 0.0 0.0 0.00 0.00 0.00 75 1013.4
20260507200937 62 120 0.0 0.0 0.00 0.00 0.00 75 1013.3
20260507200437 62 120 0.0 0.0 0.00 0.00 0.00 74 1013.3
20260507195937 62 125 0.0 0.0 0.00 0.00 0.00 74 1013.4
20260507195436 62 125 0.0 0.0 0.00 0.00 0.00 73 1013.3
20260507194936 62 125 0.0 0.0 0.00 0.00 0.00 72 1013.2
20260507194436 63 125 0.0 0.0 0.00 0.00 0.00 72 1013.2
20260507193936 63 125 0.0 0.0 0.00 0.00 0.00 71 1013.1
20260507193435 63 125 0.0 0.0 0.00 0.00 0.00 70 1013.1
20260507192935 64 125 0.0 0.0 0.00 0.00 0.00 70 1013.0
20260507192435 64 125 0.0 0.0 0.00 0.00 0.00 69 1013.0
20260507191934 64 125 0.0 0.0 0.00 0.00 0.00 68 1012.7
20260507191434 65 125 0.0 0.0 0.00 0.00 0.00 68 1012.8
20260507190934 65 127 0.0 0.0 0.00 0.00 0.00 67 1012.7
20260507190434 65 117 0.0 0.0 0.00 0.00 0.00 67 1012.7
20260507185933 65 112 0.0 0.0 0.00 0.00 0.00 67 1012.7
20260507185433 66 111 0.0 0.0 0.00 0.00 0.00 66 1012.7
20260507184933 66 129 0.0 0.0 0.00 0.00 0.00 65 1012.6
20260507184432 66 124 0.0 0.0 0.00 0.00 0.00 64 1012.5
20260507183932 67 104 0.0 0.0 0.00 0.00 0.00 63 1012.4
20260507183432 67 115 0.0 0.0 0.00 0.00 0.00 63 1012.4
20260507182932 67 116 0.0 0.0 0.00 0.00 0.00 62 1012.4
20260507182431 67 131 0.0 0.0 0.00 0.00 0.00 61 1012.4
20260507181931 68 131 0.0 0.0 0.00 0.00 0.00 60 1012.2
20260507181431 68 133 0.0 0.0 0.00 0.00 0.00 60 1012.2
20260507180930 68 102 0.0 0.0 0.00 0.00 0.00 59 1012.2
20260507180430 68 110 0.0 0.0 0.00 0.00 0.00 58 1012.1
20260507175930 69 103 0.0 0.0 0.00 0.00 0.00 57 1012.0
20260507175430 69 75 0.0 0.0 0.00 0.00 0.00 56 1011.9
20260507174929 69 85 0.0 0.0 0.00 0.00 0.00 56 1011.9
20260507174429 69 112 0.0 0.0 0.00 0.00 0.00 56 1011.8
20260507173929 69 85 0.0 0.0 0.00 0.00 0.00 56 1011.8
20260507173428 69 107 0.0 0.0 0.00 0.00 0.00 56 1011.7
20260507172928 70 104 0.0 0.0 0.00 0.00 0.00 55 1011.7
20260507172428 70 101 0.0 0.0 0.00 0.00 0.00 55 1011.6
20260507171927 70 84 0.0 0.0 0.00 0.00 0.00 55 1011.7
20260507171427 70 91 0.0 0.0 0.00 0.00 0.00 54 1011.6
20260507170927 70 133 0.0 0.0 0.00 0.00 0.00 54 1011.6
20260507170427 70 114 0.0 0.0 0.00 0.00 0.00 54 1011.6
20260507165926 71 143 0.0 0.0 0.00 0.00 0.00 53 1011.7
20260507165426 71 122 0.0 0.0 0.00 0.00 0.00 53 1011.6
20260507164926 71 118 0.0 0.0 0.00 0.00 0.00 52 1011.6
20260507164425 71 98 0.0 0.0 0.00 0.00 0.00 51 1011.6
20260507163925 71 83 0.0 0.0 0.00 0.00 0.00 50 1011.5
20260507163425 71 117 0.0 0.0 0.00 0.00 0.00 50 1011.4
20260507162925 71 109 0.0 0.0 0.00 0.00 0.00 49 1011.4
20260507162424 71 138 0.0 0.0 0.00 0.00 0.00 49 1011.5
20260507161924 71 91 0.0 0.0 0.00 0.00 0.00 49 1011.5
20260507161424 71 118 0.0 0.0 0.00 0.00 0.00 49 1011.5
20260507160923 72 106 0.0 0.0 0.00 0.00 0.00 48 1011.5
20260507160423 72 131 0.0 0.0 0.00 0.00 0.00 49 1011.5
20260507155923 72 80 0.0 0.0 0.00 0.00 0.00 49 1011.5
20260507155423 72 123 0.0 0.0 0.00 0.00 0.00 49 1011.5
20260507154922 72 122 0.0 0.0 0.00 0.00 0.00 50 1011.6
20260507154422 71 141 0.0 0.0 0.00 0.00 0.00 50 1011.6
20260507153922 71 116 0.0 0.0 0.00 0.00 0.00 49 1011.7
20260507153421 71 104 0.0 0.0 0.00 0.00 0.00 51 1011.6
20260507152921 71 72 0.0 0.0 0.00 0.00 0.00 50 1011.6
20260507152421 72 129 0.0 0.0 0.00 0.00 0.00 50 1011.7
20260507151921 72 117 0.0 0.0 0.00 0.00 0.00 50 1011.8
20260507151420 72 85 0.0 0.0 0.00 0.00 0.00 50 1011.8
20260507150920 72 194 0.0 0.0 0.00 0.00 0.00 49 1011.9
20260507150420 73 66 0.0 0.0 0.00 0.00 0.00 49 1011.9
20260507145919 72 103 0.0 0.0 0.00 0.00 0.00 49 1011.9
20260507145419 72 85 0.0 0.0 0.00 0.00 0.00 49 1011.8
20260507144919 72 154 0.0 0.0 0.00 0.00 0.00 50 1011.8
20260507144419 71 86 0.0 0.0 0.00 0.00 0.00 50 1011.9
20260507143918 71 115 0.0 0.0 0.00 0.00 0.00 49 1011.9
20260507143418 71 98 0.0 0.0 0.00 0.00 0.00 48 1011.8
20260507142918 72 130 0.0 0.0 0.00 0.00 0.00 47 1011.8
20260507142417 73 131 0.0 0.0 0.00 0.00 0.00 45 1011.8
20260507141918 73 108 0.0 0.0 0.00 0.00 0.00 46 1011.7
20260507141417 72 129 0.0 0.0 0.00 0.00 0.00 44 1011.8
20260507140917 72 137 0.0 0.0 0.00 0.00 0.00 45 1011.7
20260507140416 72 110 0.0 0.0 0.00 0.00 0.00 45 1011.8
20260507135916 72 84 0.0 0.0 0.00 0.00 0.00 44 1011.8
20260507135416 72 78 0.0 0.0 0.00 0.00 0.00 41 1011.8
20260507134915 72 109 0.0 0.0 0.00 0.00 0.00 42 1011.8
20260507134415 72 134 0.0 0.0 0.00 0.00 0.00 43 1011.9
20260507133915 72 120 0.0 0.0 0.00 0.00 0.00 43 1011.9
20260507133415 72 114 0.0 0.0 0.00 0.00 0.00 42 1011.9
20260507132914 72 35 0.0 0.0 0.00 0.00 0.00 41 1011.9
20260507132414 72 350 0.0 0.0 0.00 0.00 0.00 41 1011.9
20260507131914 72 149 0.0 0.0 0.00 0.00 0.00 40 1012.0
20260507131413 72 105 0.0 0.0 0.00 0.00 0.00 42 1012.0
20260507130913 72 130 0.0 0.0 0.00 0.00 0.00 42 1012.0
20260507130413 72 112 0.0 0.0 0.00 0.00 0.00 42 1012.0
20260507125913 72 166 0.0 0.0 0.00 0.00 0.00 42 1012.1
20260507125412 72 45 0.0 0.0 0.00 0.00 0.00 41 1012.1
20260507124912 72 350 0.0 0.0 0.00 0.00 0.00 41 1012.1
20260507124412 72 191 0.0 0.0 0.00 0.00 0.00 41 1012.1
20260507123911 71 193 0.0 0.0 0.00 0.00 0.00 41 1012.1
20260507123411 71 185 0.0 0.0 0.00 0.00 0.00 40 1012.2
20260507122911 71 354 0.0 0.0 0.00 0.00 0.00 42 1012.1
20260507122410 71 81 0.0 0.0 0.00 0.00 0.00 40 1012.3
20260507121910 71 23 0.0 0.0 0.00 0.00 0.00 41 1012.3
20260507121410 71 22 0.0 0.0 0.00 0.00 0.00 40 1012.3
20260507120910 72 347 0.0 0.0 0.00 0.00 0.00 41 1012.3
20260507120409 71 304 0.0 0.0 0.00 0.00 0.00 44 1012.4
20260507115909 71 305 0.0 0.0 0.00 0.03 0.00 43 1012.4
20260507115409 70 55 0.0 0.0 0.00 0.03 0.00 43 1012.4
20260507114908 71 16 0.0 0.0 0.00 0.03 0.00 42 1012.5
20260507114408 70 18 0.0 0.0 0.00 0.03 0.00 42 1012.6
20260507113908 70 18 0.0 0.0 0.00 0.03 0.00 43 1012.6
20260507113408 70 349 0.0 0.0 0.00 0.03 0.00 44 1012.7
20260507112907 70 19 0.0 0.0 0.00 0.03 0.00 42 1012.7
20260507112407 70 18 0.0 0.0 0.00 0.03 0.00 42 1012.8
20260507111907 70 322 0.0 0.0 0.00 0.03 0.00 43 1012.8
20260507111406 70 344 0.0 0.0 0.00 0.03 0.00 42 1012.8
20260507110906 70 8 0.0 0.0 0.00 0.03 0.00 44 1012.9
20260507110406 70 321 0.0 0.0 0.00 0.03 0.00 43 1012.9
20260507105906 69 9 0.0 0.0 0.00 0.03 0.00 43 1013.0
20260507105405 69 10 0.0 0.0 0.00 0.03 0.00 47 1013.0
20260507104905 69 51 0.0 0.0 0.00 0.03 0.00 49 1013.1
20260507104405 69 14 0.0 0.0 0.00 0.03 0.00 49 1013.2
20260507103904 69 359 0.0 0.0 0.00 0.03 0.00 51 1013.1
20260507103404 68 47 0.0 0.0 0.00 0.03 0.00 49 1013.1
20260507102904 69 49 0.0 0.0 0.00 0.03 0.00 50 1013.2
20260507102404 69 66 0.0 0.0 0.00 0.03 0.00 52 1013.2
20260507101903 68 87 0.0 0.0 0.00 0.03 0.00 51 1013.2
20260507101403 68 333 0.0 0.0 0.00 0.03 0.00 50 1013.3
20260507100903 68 359 0.0 0.0 0.00 0.03 0.00 50 1013.3
20260507100402 68 359 0.0 0.0 0.00 0.03 0.00 52 1013.3
20260507095902 68 32 0.0 0.0 0.00 0.03 0.00 51 1013.3
20260507095402 69 21 0.0 0.0 0.00 0.03 0.00 53 1013.3
20260507094902 69 52 0.0 0.0 0.00 0.03 0.00 51 1013.4
20260507094401 68 335 0.0 0.0 0.00 0.03 0.00 50 1013.4
20260507093901 68 14 0.0 0.0 0.00 0.03 0.00 50 1013.4
20260507093401 68 4 0.0 0.0 0.00 0.03 0.00 52 1013.4
20260507092900 68 4 0.0 0.0 0.00 0.03 0.00 51 1013.4
20260507092400 67 4 0.0 0.0 0.00 0.03 0.00 51 1013.5
20260507091900 67 8 0.0 0.0 0.00 0.03 0.00 53 1013.5
20260507091400 66 16 0.0 0.0 0.00 0.03 0.00 54 1013.5
20260507090859 66 10 0.0 0.0 0.00 0.03 0.00 54 1013.4
20260507090359 66 8 0.0 0.0 0.00 0.03 0.00 55 1013.4
20260507085859 66 18 0.0 0.0 0.00 0.03 0.00 54 1013.4
20260507085358 67 8 0.0 0.0 0.00 0.03 0.00 54 1013.4
20260507084858 66 354 0.0 0.0 0.00 0.03 0.00 55 1013.3
20260507084358 66 4 0.0 0.0 0.00 0.03 0.00 55 1013.3
20260507083858 66 12 0.0 0.0 0.00 0.03 0.00 55 1013.3
20260507083357 66 30 0.0 0.0 0.00 0.03 0.00 54 1013.3
20260507082857 66 31 0.0 0.0 0.00 0.03 0.00 56 1013.3
20260507082357 66 31 0.0 0.0 0.00 0.03 0.00 54 1013.3
20260507081856 66 8 0.0 0.0 0.00 0.03 0.00 54 1013.2
20260507081356 66 148 0.0 0.0 0.00 0.03 0.00 53 1013.1
20260507080856 66 150 0.0 0.0 0.00 0.03 0.00 53 1013.2
20260507080356 67 233 0.0 0.0 0.00 0.03 0.00 55 1013.1
20260507075855 66 226 0.0 0.0 0.00 0.09 0.00 55 1013.1
20260507075355 66 226 0.0 0.0 0.00 0.09 0.00 55 1013.1
20260507074855 66 226 0.0 0.0 0.00 0.09 0.00 55 1013.1
20260507074354 66 226 0.0 0.0 0.00 0.09 0.00 53 1013.0
20260507073854 66 232 0.0 0.0 0.00 0.09 0.00 54 1013.0
20260507073354 66 232 0.0 0.0 0.00 0.09 0.00 55 1013.0
20260507072854 65 232 0.0 0.0 0.00 0.09 0.00 55 1013.0
20260507072353 65 232 0.0 0.0 0.00 0.09 0.00 56 1013.0
20260507071853 64 232 0.0 0.0 0.00 0.09 0.00 56 1013.0
20260507071353 64 232 0.0 0.0 0.00 0.09 0.00 58 1013.0
20260507070852 63 232 0.0 0.0 0.00 0.09 0.00 58 1012.9
20260507070352 63 231 0.0 0.0 0.00 0.09 0.00 59 1012.8
20260507065852 63 230 0.0 0.0 0.00 0.13 0.00 58 1012.8
20260507065352 63 206 0.0 0.0 0.00 0.13 0.00 58 1012.8
20260507064851 63 226 0.0 0.0 0.00 0.13 0.00 60 1012.8
20260507064351 63 226 0.0 0.0 0.00 0.13 0.00 59 1012.7
20260507063851 63 220 0.0 0.0 0.00 0.13 0.00 60 1012.7
20260507063350 63 226 0.0 0.0 0.00 0.13 0.00 60 1012.7
20260507062850 62 226 0.0 0.0 0.00 0.13 0.00 61 1012.7
20260507062350 62 226 0.0 0.0 0.00 0.13 0.00 61 1012.6
20260507061850 62 218 0.0 0.0 0.00 0.13 0.00 62 1012.5
20260507061349 62 213 0.0 0.0 0.00 0.13 0.00 63 1012.6
20260507060849 61 222 0.0 0.0 0.00 0.13 0.00 65 1012.4
20260507060349 61 222 0.0 0.0 0.00 0.13 0.00 65 1012.4
20260507055848 60 222 0.0 0.0 0.00 0.30 0.00 66 1012.3
20260507055348 60 212 0.0 0.0 0.00 0.30 0.00 67 1012.3
20260507054848 59 214 0.0 0.0 0.00 0.30 0.00 67 1012.3
20260507054347 59 214 0.0 0.0 0.00 0.30 0.00 68 1012.3
20260507053847 59 212 0.0 0.0 0.00 0.30 0.00 69 1012.3
20260507053347 58 211 0.0 0.0 0.00 0.30 0.00 69 1012.2
20260507052847 58 218 0.0 0.0 0.00 0.30 0.00 70 1012.1
20260507052346 57 212 0.0 0.0 0.00 0.30 0.00 71 1012.1
20260507051846 57 210 0.0 0.0 0.00 0.30 0.00 72 1012.1
20260507051346 56 212 0.0 0.0 0.00 0.30 0.00 73 1012.1
20260507050845 56 205 0.0 0.0 0.00 0.30 0.00 74 1012.0
20260507050345 56 206 0.0 0.0 0.00 0.30 0.00 76 1012.0
20260507045845 55 230 0.0 0.0 0.00 0.42 0.00 77 1011.9
20260507045345 55 235 0.0 0.0 0.00 0.42 0.00 78 1011.8
20260507044844 55 241 0.0 0.0 0.00 0.42 0.00 79 1011.8
20260507044344 55 241 0.0 0.0 0.00 0.42 0.00 79 1011.7
20260507043844 55 241 0.0 0.0 0.00 0.42 0.00 79 1011.7
20260507043343 55 241 0.0 0.0 0.00 0.42 0.00 78 1011.6
20260507042843 54 241 0.0 0.0 0.00 0.42 0.00 78 1011.6
20260507042343 54 241 0.0 0.0 0.00 0.42 0.00 77 1011.6
20260507041843 54 241 0.0 0.0 0.00 0.42 0.00 77 1011.6
20260507041342 54 247 0.0 0.0 0.00 0.42 0.00 77 1011.6
20260507040842 54 246 0.0 0.0 0.00 0.42 0.00 77 1011.5
20260507040342 55 246 0.0 0.0 0.00 0.42 0.00 77 1011.5
20260507035841 55 247 0.0 0.0 0.00 0.69 0.00 77 1011.5
20260507035341 55 247 0.0 0.0 0.00 0.69 0.00 77 1011.4
20260507034841 55 247 0.0 0.0 0.00 0.69 0.00 77 1011.3
20260507034341 55 241 0.0 0.0 0.00 0.69 0.00 77 1011.3
20260507033840 55 239 0.0 0.0 0.00 0.69 0.00 76 1011.3
20260507033340 55 240 0.0 0.0 0.00 0.69 0.00 76 1011.3
20260507032840 55 224 0.0 0.0 0.00 0.69 0.00 76 1011.3
20260507032339 56 223 0.0 0.0 0.00 0.69 0.00 76 1011.3
20260507031839 56 233 0.0 0.0 0.00 0.69 0.00 75 1011.2
20260507031339 56 233 0.0 0.0 0.00 0.69 0.00 75 1011.2
20260507030839 56 233 0.0 0.0 0.00 0.69 0.00 75 1011.2
20260507030338 56 231 0.0 0.0 0.00 0.69 0.00 75 1011.2
20260507025838 56 233 0.0 0.0 0.00 0.76 0.00 74 1011.2
20260507025338 56 209 0.0 0.0 0.00 0.76 0.00 74 1011.2
20260507024837 56 209 0.0 0.0 0.00 0.76 0.00 74 1011.2
20260507024337 56 209 0.0 0.0 0.00 0.76 0.00 74 1011.1
20260507023837 56 220 0.0 0.0 0.00 0.76 0.00 74 1011.1
20260507023337 56 206 0.0 0.0 0.00 0.76 0.00 74 1011.1
20260507022836 56 165 0.0 0.0 0.00 0.76 0.00 74 1011.1
20260507022336 57 174 0.0 0.0 0.00 0.76 0.00 74 1011.1
20260507021836 57 186 0.0 0.0 0.00 0.76 0.00 73 1011.1
20260507021335 57 212 0.0 0.0 0.00 0.76 0.00 73 1011.1
20260507020835 57 213 0.0 0.0 0.00 0.76 0.00 73 1011.1
20260507020335 57 212 0.0 0.0 0.00 0.76 0.00 73 1011.2
20260507015835 57 212 0.0 0.0 0.00 0.85 0.00 73 1011.0
20260507015334 57 216 0.0 0.0 0.00 0.85 0.00 73 1011.0
20260507014834 57 207 0.0 0.0 0.00 0.85 0.00 74 1011.0
20260507014334 57 208 0.0 0.0 0.00 0.85 0.00 75 1010.9
20260507013833 56 213 0.0 0.0 0.00 0.85 0.00 76 1010.9
20260507013333 56 199 0.0 0.0 0.00 0.85 0.00 78 1010.9
20260507012833 56 211 0.0 0.0 0.00 0.85 0.00 78 1010.8
20260507012333 56 211 0.0 0.0 0.00 0.85 0.00 77 1010.8
20260507011832 56 211 0.0 0.0 0.00 0.85 0.00 76 1010.8
20260507011332 56 211 0.0 0.0 0.00 0.85 0.00 76 1010.8
20260507010832 57 211 0.0 0.0 0.00 0.85 0.00 75 1010.8
20260507010331 57 211 0.0 0.0 0.00 0.85 0.00 74 1010.8
20260507005831 58 211 0.0 0.0 0.00 1.09 0.00 73 1010.8
20260507005331 58 211 0.0 0.0 0.00 1.09 0.00 72 1010.9
20260507004831 58 211 0.0 0.0 0.00 1.09 0.00 71 1010.9
20260507004330 59 211 0.0 0.0 0.00 1.09 0.00 70 1010.9
20260507003830 59 211 0.0 0.0 0.00 1.09 0.00 70 1010.9
20260507003330 59 211 0.0 0.0 0.00 1.09 0.00 70 1011.0
20260507002829 59 211 0.0 0.0 0.00 1.09 0.00 69 1010.9
20260507002329 59 212 0.0 0.0 0.00 1.09 0.00 69 1010.7
20260507001829 59 211 0.0 0.0 0.00 1.09 0.00 69 1010.8
20260507001329 59 212 0.0 0.0 0.00 1.09 0.00 69 1010.9
20260507000828 59 206 0.0 0.0 0.00 1.09 0.00 69 1010.9
20260507000328 59 209 0.0 0.0 0.00 1.09 0.00 69 1010.9
20260506235828 58 204 0.0 0.0 0.00 1.22 0.00 70 1010.9
20260506235327 58 211 0.0 0.0 0.00 1.22 0.00 70 1010.9
20260506234827 58 211 0.0 0.0 0.00 1.22 0.00 71 1010.9
20260506234327 58 211 0.0 0.0 0.00 1.22 0.00 70 1010.8
20260506233826 58 210 0.0 0.0 0.00 1.22 0.00 70 1010.9
20260506233326 59 210 0.0 0.0 0.00 1.22 0.00 69 1010.9
20260506232826 58 210 0.0 0.0 0.00 1.22 0.00 69 1011.0
20260506232326 58 210 0.0 0.0 0.00 1.22 0.00 69 1011.0
20260506231825 58 210 0.0 0.0 0.00 1.22 0.00 69 1011.0
20260506231325 59 211 0.0 0.0 0.00 1.22 0.00 69 1011.0
20260506230825 59 211 0.0 0.0 0.00 1.22 0.00 67 1011.1
20260506230325 59 210 0.0 0.0 0.00 1.22 0.00 67 1011.1
20260506225824 59 209 0.0 0.0 0.00 1.23 0.00 67 1011.1
20260506225324 59 210 0.0 0.0 0.00 1.23 0.00 67 1011.1
20260506224824 59 214 0.0 0.0 0.00 1.23 0.00 67 1011.1
20260506224323 59 216 0.0 0.0 0.00 1.23 0.00 68 1011.0
20260506223823 59 239 0.0 0.0 0.00 1.23 0.00 67 1011.0
20260506223323 59 240 0.0 0.0 0.00 1.23 0.00 67 1011.0
20260506222822 60 240 0.0 0.0 0.00 1.23 0.00 66 1011.0
20260506222322 60 243 0.0 0.0 0.00 1.23 0.00 66 1010.9